This is the latest recevied weather packets stored in our database for station/object 9M2SAR-10. If no packets are shown the sender has not sent any weather packets the latest 10 day(s).
| Time | Temp. | Humidity | Pressure | Rain* | Wind** | Luminosity | Snow |
|---|---|---|---|---|---|---|---|
| 1777572973 | 27.22° C | 100% | 1010.7 hPa | - | - | - | - |
| 1777572072 | 28.33° C | 100% | 1010.2 hPa | - | - | - | - |
| 1777571172 | 28.33° C | 100% | 1010 hPa | - | - | - | - |
| 1777570272 | 27.78° C | 100% | 1010.2 hPa | - | - | - | - |
| 1777569372 | 27.78° C | 100% | 1010.6 hPa | - | - | - | - |
| 1777568472 | 27.78° C | 100% | 1010.7 hPa | - | - | - | - |
| 1777567572 | 27.78° C | 100% | 1011.1 hPa | - | - | - | - |
| 1777566672 | 28.33° C | 100% | 1011.3 hPa | - | - | - | - |
| 1777565772 | 27.78° C | 100% | 1010.9 hPa | - | - | - | - |
| 1777564872 | 27.78° C | 100% | 1011 hPa | - | - | - | - |
| 1777563989 | 27.78° C | 100% | 1011.2 hPa | - | - | - | - |
| 1777561271 | 27.78° C | 100% | 1010.5 hPa | - | - | - | - |
| 1777560371 | 28.33° C | 100% | 1010.3 hPa | - | - | - | - |
| 1777559471 | 27.78° C | 100% | 1010.4 hPa | - | - | - | - |
| 1777558571 | 27.78° C | 100% | 1010.2 hPa | - | - | - | - |
| 1777557671 | 28.33° C | 100% | 1009.8 hPa | - | - | - | - |
| 1777556771 | 28.89° C | 100% | 1009.6 hPa | - | - | - | - |
| 1777555871 | 28.89° C | 100% | 1009.6 hPa | - | - | - | - |
| 1777554971 | 28.33° C | 100% | 1009.5 hPa | - | - | - | - |
| 1777554071 | 28.33° C | 100% | 1009 hPa | - | - | - | - |
| 1777553170 | 28.33° C | 100% | 1008.8 hPa | - | - | - | - |
| 1777552270 | 29.44° C | 100% | 1008.7 hPa | - | - | - | - |
| 1777551370 | 29.44° C | 100% | 1008.5 hPa | - | - | - | - |
| 1777550470 | 29.44° C | 100% | 1008.6 hPa | - | - | - | - |
| 1777549570 | 28.89° C | 100% | 1008.4 hPa | - | - | - | - |
* Rain since midnight (hover to see other rain measurements)
** Current wind speed in m/s (hover to see current wind gust speed)